User: anonymous   Login
Location: Nelson
(41.2830°S, 173.2830°E)
Time: 13:07:28
(UTC+12:00)
Language:

Meteor 2-13 Rocket - Orbit

View from above orbital plane
View from above orbital plane
View from above satellite
View from above satellite

Ground track
Ground track

The orbit data is extracted from the following two-line orbital elements,

1 16409U 85119B   19110.19209509  .00000039  00000-0  21402-4 0  9996
2 16409  82.5395 184.5612 0013712 302.8676  57.1164 13.84806369683826
Epoch (UTC): 20 April 2019 04:36:37
Eccentricity: 0.0013712
inclination: 82.5395°
perigee height: 937 km
apogee height: 957 km
right ascension of ascending node: 184.5612°
argument of perigee: 302.8676°
revolutions per day: 13.84806369
mean anomaly at epoch: 57.1164°
orbit number at epoch: 68382

The dashed part of the orbit path shows where the satellite is in the earth's shadow,  

DLR